Wind_Speed
13 12 11 9 8 7 7 5 3 2 0 2 4 5 6 6 6 7 8 8 8 8 8 7 7 7 7 7 7 8 8 8 8 8 8 8 8 7 7 6 6 6 6 6
12 12 11 10 9 7 6 5 3 1 1 3 5 7 8 7 6 6 7 7 8 7 7 6 5 6 6 7 7 7 6 7 7 8 7 7 7 7 6 6 6 5 5 5
13 12 12 12 10 7 6 5 4 3 2 5 6 7 8 7 6 6 7 7 7 7 6 5 5 5 6 7 7 6 6 6 6 7 8 7 7 6 6 6 6 5 5 4
14 13 12 12 9 8 6 7 7 6 7 7 9 8 7 8 7 6 7 7 7 7 6 5 5 5 6 6 6 6 5 5 6 6 7 6 7 6 5 5 6 6 5 5
13 14 13 12 11 10 7 7 7 7 7 8 9 9 8 9 9 6 6 7 7 7 7 6 6 6 6 6 6 6 5 5 5 5 6 6 6 6 6 6 5 5 5 5
14 14 14 13 12 12 9 9 9 9 9 9 9 10 10 10 8 7 7 6 6 7 8 8 7 7 7 7 7 7 6 6 6 6 6 6 6 6 7 6 6 6 6 6
13 14 13 12 12 12 11 12 12 11 11 10 11 11 11 11 9 8 7 7 7 8 9 9 8 8 7 7 7 7 8 8 7 7 7 7 7 7 8 8 7 7 8 8
13 14 14 12 11 11 12 13 13 12 12 11 11 13 11 11 11 9 9 8 8 8 9 10 10 8 7 8 8 8 9 9 8 9 9 9 9 9 9 9 9 9 9 10
15 14 15 14 12 12 13 13 12 13 13 14 13 13 13 13 13 11 9 8 8 9 10 11 11 9 8 9 9 9 9 10 10 10 10 11 11 11 10 11 11 11 11 11
15 15 16 16 15 15 14 13 13 14 15 16 16 15 14 15 13 12 12 11 9 9 10 11 11 10 9 10 11 11 11 11 11 11 12 12 12 12 11 11 11 11 11 11
16 16 16 16 16 15 16 16 16 16 16 17 17 18 18 17 17 15 15 14 12 12 13 13 12 11 10 11 12 12 13 13 13 13 14 13 12 13 12 13 13 13 13 13
17 18 18 18 17 16 17 18 18 19 18 18 19 19 18 18 17 16 16 15 15 14 14 14 14 12 12 12 13 14 14 14 14 14 15 14 14 14 14 14 14 14 15 15
19 20 20 19 19 19 18 19 18 19 19 19 19 20 19 19 19 17 17 17 16 16 16 17 16 14 13 13 14 15 16 16 16 16 16 16 16 16 16 17 17 17 16 17
21 22 22 22 20 20 19 19 20 20 20 20 20 21 21 20 18 18 18 18 18 18 19 19 17 16 15 15 16 17 18 18 17 17 17 17 17 17 18 18 19 20 20 19
23 23 23 22 21 23 22 21 21 22 22 22 22 22 22 20 20 21 21 20 20 19 19 19 18 17 16 17 17 18 19 19 19 19 18 17 18 18 19 20 21 21 21 21
24 24 23 23 23 24 24 24 24 24 24 24 23 23 23 23 23 22 23 22 21 21 19 20 19 18 18 18 18 19 20 20 20 20 20 19 19 19 20 21 22 22 22 22
25 24 24 23 23 24 24 24 25 25 25 25 25 24 24 24 24 24 23 22 21 21 20 20 19 19 19 20 20 20 21 21 21 21 21 21 21 22 23 22 22 23 23 23
26 26 25 25 24 26 25 25 26 27 25 24 24 24 25 24 25 25 24 23 22 22 22 22 22 22 22 23 23 22 23 23 23 23 23 23 23 24 24 24 23 23 23 23
27 27 27 26 26 25 25 25 26 27 28 27 26 26 26 25 26 26 26 24 23 23 24 24 24 25 24 24 24 24 24 25 25 25 25 25 25 25 25 25 24 25 25 25
28 28 27 27 27 28 27 25 25 26 28 27 27 27 27 28 28 27 27 26 25 25 26 25 25 25 25 25 25 26 26 26 26 27 27 27 27 27 27 27 27 27 26 26
28 27 27 28 29 29 28 27 26 27 26 26 26 27 27 28 27 27 27 26 26 26 27 27 27 27 28 28 28 29 28 28 28 27 28 28 27 28 28 28 28 28 28 27
30 29 29 30 31 31 29 29 28 27 26 26 26 26 27 28 28 27 27 27 27 28 29 28 28 29 29 30 30 30 30 30 30 30 29 29 28 28 28 28 28 28 28 27
30 31 31 31 31 30 29 29 28 28 27 27 27 27 28 28 28 27 27 27 28 29 30 30 30 30 31 31 31 31 31 31 32 32 31 30 30 30 30 29 28 28 28 28
31 31 30 30 30 29 28 28 27 27 27 27 28 28 28 28 27 27 28 29 30 31 31 31 31 32 32 32 33 32 32 32 32 32 31 31 31 30 30 30 29 29 29 29
30 31 31 31 30 29 29 28 27 27 27 28 28 28 27 28 27 27 29 30 31 31 32 32 32 32 32 32 32 31 31 32 32 32 32 32 32 32 32 31 31 31 29 29
30 31 31 30 30 30 29 29 28 29 28 28 27 27 27 28 28 29 30 31 31 31 32 33 33 33 33 32 32 31 31 31 32 33 32 32 32 32 32 32 32 32 31 31
Wind_Direction
199 193 183 187 194 190 178 177 165 134 355 319 317 324 341 349 355 2 6 14 26 32 28 25 28 32 33 33 31 30 38 37 36 36 36 35 33 33 34 34 36 33 31 30
200 193 187 193 198 189 191 191 187 171 18 301 304 315 324 324 333 354 357 2 9 17 21 16 20 27 23 20 18 19 21 26 26 25 26 26 24 23 22 19 17 17 14 12
202 195 196 199 196 191 189 201 216 239 251 291 295 309 318 311 312 327 344 355 347 353 359 1 0 15 13 10 8 4 6 9 13 15 14 17 19 17 16 14 10 7 3 2
203 203 206 207 203 205 205 218 236 242 249 279 291 297 306 309 306 310 327 337 340 337 339 339 342 357 2 359 354 350 350 356 359 2 5 6 4 3 3 0 356 354 354 355
208 207 208 207 208 217 227 236 242 245 250 266 275 281 293 304 301 294 303 319 330 331 326 325 331 327 330 332 330 328 331 336 342 344 343 345 343 342 341 341 339 343 341 338
210 212 210 207 214 225 234 233 235 247 252 259 262 277 293 292 288 280 291 306 312 315 318 317 321 313 307 311 312 316 315 320 324 328 328 328 326 325 326 323 319 319 320 321
212 217 215 212 219 224 231 232 237 247 255 267 265 272 288 286 286 283 283 289 296 306 318 318 315 306 296 300 301 310 309 307 307 310 312 314 314 317 318 314 309 306 306 308
216 217 219 218 225 231 235 237 245 254 264 271 270 271 276 275 279 281 277 281 290 298 310 314 312 301 294 296 295 303 302 301 298 301 301 301 300 304 307 305 302 300 301 300
222 220 218 220 224 230 232 238 248 257 265 270 272 275 268 271 277 280 282 286 286 292 302 306 306 295 291 296 296 299 299 300 298 295 293 291 289 289 294 295 293 292 294 298
228 223 219 221 225 227 231 237 245 253 261 265 270 278 283 273 279 277 280 284 285 292 298 301 302 294 294 296 293 292 292 292 293 291 289 289 287 287 289 290 289 289 288 289
224 222 217 221 224 230 235 239 247 254 259 267 272 276 280 276 280 278 282 284 284 286 288 292 291 290 290 292 291 291 291 291 290 287 287 284 285 286 287 286 286 287 288 285
230 228 225 223 224 229 236 241 244 251 257 265 273 279 277 279 281 283 285 284 285 283 282 286 283 280 284 288 290 291 292 291 290 287 288 282 285 285 286 287 289 288 289 286
234 236 233 227 225 230 236 238 242 249 256 261 268 276 278 278 280 284 287 288 290 286 285 285 281 277 281 287 289 291 289 289 286 286 287 286 287 286 286 289 288 288 287 287
236 239 239 237 233 233 236 237 243 250 255 258 264 272 278 279 278 284 288 292 294 289 289 285 281 282 286 288 290 290 288 285 285 285 286 287 286 287 289 291 291 292 288 285
240 243 244 244 241 238 240 240 246 254 257 259 264 270 276 279 281 283 285 287 291 290 289 286 283 283 283 286 289 290 289 288 286 287 288 286 283 285 287 288 290 292 292 288
241 242 243 244 243 243 244 245 248 254 258 260 263 268 272 276 280 282 285 284 287 289 291 288 284 285 285 285 286 286 288 290 290 289 287 285 286 287 288 288 289 291 291 289
239 240 243 243 241 242 244 246 247 251 256 261 263 266 269 275 279 282 286 284 285 287 291 290 283 281 284 287 286 286 288 288 288 290 290 291 289 289 289 289 287 289 290 289
242 245 247 246 243 242 245 246 249 253 256 260 264 267 270 272 277 282 283 284 285 287 287 286 282 281 282 283 285 285 285 286 286 287 288 288 289 288 287 289 289 288 289 290
244 245 247 247 246 247 248 249 252 255 257 260 265 269 270 272 276 279 280 281 283 287 287 287 285 283 285 285 283 281 282 284 284 285 286 286 287 287 287 290 290 289 288 287
243 245 246 246 249 250 254 255 256 259 262 263 265 268 270 272 274 277 279 279 281 285 286 286 284 283 284 283 282 283 282 282 283 284 286 287 288 288 287 288 288 288 289 287
242 244 247 248 248 251 254 254 256 260 264 265 265 267 271 272 274 275 276 277 280 283 285 285 284 284 286 286 285 283 282 282 283 284 286 286 286 289 289 289 287 287 287 286
240 243 247 249 250 253 256 256 256 263 266 266 266 268 272 273 273 273 274 276 279 282 283 284 285 286 286 286 284 283 283 282 282 283 284 284 285 287 288 288 287 286 286 284
242 245 248 251 254 256 256 256 259 263 265 264 264 267 268 269 271 272 275 277 279 281 282 283 285 286 286 285 284 283 282 282 283 284 285 285 284 286 287 287 286 286 286 285
244 247 249 252 254 256 257 259 263 265 266 267 267 269 268 268 269 272 274 277 279 281 282 283 284 285 285 285 284 284 282 281 282 282 282 281 281 283 285 287 288 287 285 284
245 249 250 252 254 257 260 264 265 264 267 269 269 269 268 270 272 273 275 277 279 282 283 284 285 285 285 285 284 284 281 280 279 280 281 280 279 281 283 285 288 287 284 284
246 248 250 252 254 257 260 265 269 268 268 268 267 268 270 271 274 276 277 278 280 282 284 285 286 287 286 286 284 283 282 280 280 281 280 279 279 280 282 283 284 285 284 284
Height
5912 5915 5915 5917 5918 5918 5919 5920 5921 5921 5921 5921 5921 5919 5919 5919 5918 5918 5917 5916 5915 5914 5913 5912 5911 5911 5910 5910 5909 5908 5907 5906 5905 5904 5903 5902 5900 5899 5898 5897 5896 5896 5895 5894
5911 5913 5914 5915 5916 5917 5918 5919 5920 5920 5920 5920 5920 5918 5918 5918 5918 5917 5917 5916 5915 5914 5913 5913 5912 5911 5911 5910 5909 5908 5907 5906 5905 5904 5903 5902 5901 5899 5898 5897 5896 5895 5895 5894
5909 5912 5912 5913 5914 5916 5917 5918 5919 5919 5919 5919 5919 5919 5918 5917 5917 5917 5916 5915 5915 5914 5914 5913 5912 5911 5911 5910 5909 5908 5907 5906 5905 5904 5903 5902 5900 5899 5898 5897 5896 5895 5894 5893
5907 5909 5909 5911 5912 5914 5916 5917 5917 5917 5918 5918 5918 5917 5917 5916 5916 5916 5915 5914 5914 5914 5913 5912 5912 5911 5910 5909 5908 5907 5906 5906 5905 5903 5902 5901 5900 5899 5898 5897 5896 5894 5893 5892
5905 5906 5907 5908 5910 5912 5913 5914 5915 5916 5916 5916 5916 5915 5916 5914 5914 5914 5913 5913 5912 5912 5912 5911 5911 5910 5909 5908 5907 5906 5905 5904 5903 5903 5901 5900 5899 5898 5897 5896 5895 5893 5892 5891
5903 5904 5905 5907 5909 5910 5912 5913 5914 5914 5914 5914 5914 5914 5914 5912 5911 5912 5911 5911 5910 5911 5910 5910 5909 5908 5907 5906 5906 5904 5904 5903 5902 5901 5900 5899 5898 5897 5896 5894 5893 5892 5891 5890
5900 5902 5903 5905 5906 5908 5909 5911 5911 5911 5911 5912 5911 5911 5912 5910 5910 5910 5909 5909 5909 5909 5908 5907 5906 5906 5905 5904 5903 5903 5902 5901 5900 5900 5899 5897 5896 5895 5894 5893 5892 5890 5889 5888
5897 5900 5901 5903 5904 5905 5906 5908 5909 5909 5909 5909 5908 5908 5909 5908 5907 5907 5907 5906 5906 5906 5906 5905 5904 5903 5903 5903 5902 5901 5900 5899 5898 5897 5896 5895 5894 5893 5891 5890 5889 5888 5887 5885
5894 5897 5899 5900 5901 5903 5904 5905 5906 5906 5906 5906 5905 5905 5906 5905 5905 5905 5904 5904 5903 5903 5903 5902 5901 5900 5900 5900 5899 5898 5897 5897 5896 5894 5893 5892 5891 5889 5888 5887 5886 5885 5883 5882
5891 5894 5896 5897 5898 5899 5901 5902 5903 5903 5902 5902 5902 5902 5902 5902 5901 5902 5902 5901 5901 5900 5899 5898 5897 5896 5896 5896 5896 5895 5894 5893 5893 5891 5889 5888 5887 5885 5885 5883 5882 5881 5880 5878
5887 5890 5892 5893 5894 5896 5898 5898 5898 5899 5899 5899 5898 5900 5898 5898 5898 5898 5898 5898 5897 5897 5896 5896 5894 5893 5892 5892 5892 5892 5891 5890 5889 5887 5886 5884 5883 5882 5881 5879 5878 5877 5875 5874
5883 5885 5887 5890 5891 5892 5893 5894 5894 5895 5895 5895 5894 5897 5894 5894 5893 5893 5893 5893 5893 5893 5892 5892 5892 5890 5889 5888 5888 5887 5886 5885 5884 5883 5881 5880 5879 5878 5877 5875 5874 5872 5871 5869
5879 5880 5882 5885 5888 5888 5888 5889 5889 5890 5890 5890 5890 5892 5890 5889 5888 5889 5889 5888 5888 5888 5888 5887 5887 5885 5884 5883 5883 5882 5881 5880 5879 5878 5877 5875 5874 5873 5872 5871 5869 5867 5866 5864
5874 5875 5878 5880 5881 5883 5883 5885 5885 5885 5885 5886 5886 5886 5885 5885 5884 5885 5885 5884 5884 5884 5883 5882 5881 5880 5879 5878 5878 5877 5876 5875 5874 5873 5872 5871 5870 5868 5867 5866 5864 5862 5860 5858
5869 5871 5872 5875 5877 5877 5878 5879 5880 5880 5880 5881 5881 5881 5880 5880 5880 5880 5880 5879 5879 5878 5877 5876 5875 5874 5874 5873 5872 5871 5870 5870 5869 5868 5866 5865 5864 5863 5861 5860 5858 5856 5855 5853
5863 5865 5867 5869 5871 5871 5872 5873 5874 5875 5875 5875 5875 5875 5875 5875 5875 5875 5875 5874 5873 5873 5871 5871 5870 5869 5869 5868 5867 5866 5865 5864 5863 5862 5861 5859 5858 5857 5855 5854 5852 5850 5848 5846
5857 5859 5861 5863 5865 5865 5866 5868 5868 5869 5869 5870 5870 5871 5870 5870 5870 5870 5869 5869 5868 5866 5866 5865 5865 5864 5863 5862 5861 5860 5859 5858 5857 5856 5854 5853 5852 5850 5849 5847 5845 5844 5842 5839
5852 5853 5855 5857 5859 5859 5863 5862 5863 5863 5863 5864 5864 5865 5865 5865 5865 5864 5864 5863 5862 5861 5860 5860 5859 5858 5857 5855 5854 5853 5853 5852 5851 5849 5848 5846 5845 5843 5842 5840 5838 5837 5835 5832
5845 5847 5848 5850 5851 5853 5855 5856 5856 5856 5856 5858 5858 5858 5858 5858 5858 5858 5858 5857 5857 5856 5855 5854 5853 5851 5850 5849 5847 5846 5845 5845 5844 5842 5841 5839 5838 5836 5834 5832 5830 5829 5827 5825
5838 5840 5842 5843 5844 5845 5849 5850 5850 5851 5850 5851 5851 5851 5851 5851 5851 5852 5851 5850 5850 5849 5848 5847 5846 5845 5843 5841 5840 5839 5838 5837 5836 5835 5833 5831 5830 5828 5826 5824 5823 5821 5819 5817
5831 5833 5834 5836 5836 5838 5841 5842 5844 5844 5845 5845 5845 5845 5845 5844 5844 5844 5842 5842 5842 5841 5840 5839 5838 5838 5836 5835 5833 5831 5830 5829 5827 5826 5825 5824 5822 5820 5818 5816 5814 5812 5810 5808
5824 5826 5827 5828 5829 5833 5834 5835 5837 5838 5838 5838 5838 5838 5838 5838 5837 5836 5836 5835 5834 5833 5833 5832 5831 5829 5828 5826 5824 5823 5821 5820 5818 5817 5816 5815 5813 5811 5809 5807 5805 5804 5802 5800
5816 5818 5820 5821 5824 5825 5826 5828 5829 5830 5830 5830 5830 5830 5830 5830 5830 5829 5829 5828 5827 5826 5825 5824 5822 5821 5819 5817 5816 5814 5813 5811 5810 5808 5807 5805 5804 5802 5800 5798 5797 5795 5793 5791
5809 5810 5812 5814 5815 5817 5819 5820 5821 5822 5822 5822 5822 5822 5822 5821 5821 5821 5821 5820 5819 5818 5817 5815 5814 5812 5810 5808 5806 5804 5802 5801 5800 5799 5798 5796 5795 5793 5791 5789 5787 5786 5784 5782
5801 5803 5805 5807 5808 5810 5811 5812 5812 5813 5813 5814 5814 5814 5813 5813 5813 5813 5812 5812 5811 5809 5808 5806 5805 5803 5801 5799 5797 5795 5793 5791 5791 5789 5788 5787 5785 5783 5782 5780 5778 5777 5775 5773
5794 5796 5798 5800 5802 5803 5804 5804 5804 5805 5805 5805 5805 5805 5805 5805 5805 5804 5804 5803 5801 5800 5799 5797 5795 5794 5792 5790 5788 5785 5784 5782 5781 5780 5778 5777 5775 5774 5772 5771 5770 5767 5766 5764